Agana Heights, GU

6:30 PM ChST on May 06, 2015 (GMT +1000)
Maite | | Change Station
CLOSE
Current Station
Personal Weather Station
Location: Maite, GU
Elevation: 140 ft
Nearby Weather Stations

Elev 140 ft 13.48 °N, 144.76 °E | Updated 17 seconds ago

Scattered Clouds
Scattered Clouds
83.4 °F
Feels Like 92 °F
N
7.0
Wind Variable Wind from ESE
Gusts 16.0 mph

Today
High -- | Low -- °F
--% Chance of Precip.
Yesterday
High -- | Low -- °F
Precip. -- in
5:58 AM 6:37 PM
Waning Gibbous, 95% visible
Pressure 29.79 in
Visibility 10.0 miles
Clouds Scattered Clouds 2000 ft
Heat Index 92 °F
Dew Point 76 °F
Humidity 78%
Rainfall 0.02 in
Snow Depth Not available.
UV 0.0 out of 12
Pollen Not available.
Air Quality Not available.
Flu Activity Regional
METAR PGUM 060754Z 11010G16KT 10SM SCT020 28/23 A2981 RMK AO2 SLP086 T02830233

More Conditions Fewer Conditions

Pressure 29.79 in
Visibility 10.0 miles
Clouds Scattered Clouds 2000 ft
Heat Index 92 °F
Dew Point 76 °F
Humidity 78%
Rainfall 0.02 in
Snow Depth Not available.
UV 0.0 out of 12
Pollen Not available.
Air Quality Not available.
Flu Activity Regional
METAR PGUM 060754Z 11010G16KT 10SM SCT020 28/23 A2981 RMK AO2 SLP086 T02830233

More Conditions Fewer Conditions

10-Day Weather Forecast

Almanac

Astronomy

May. 06, 2015 Rise Set
Actual Time
Civil Twilight
Nautical Twilight
Astronomical Twilight
Moon
Length of Visible Light
Length of Day
Tomorrow will be .
, % of the Moon is Illuminated

Today's Extremes

State Highs State Lows

Community

WunderPhotos

Upload Photos

1,818,853 photos uploaded!

WunderBlogs® & News

Nearby

Air Quality

  Air Quality AQ Index Pollutant
Not available.

Snow Depth

Station Depth Elevation

Earthquake Activity

City Distance Mag. Time & Date
Minimum magnitude displayed is 2.5.

Coastal Water Temperatures

Place Temperature

Stations

Nearby Weather Stations

Station Location Temp. Windchill Dew Point Humidity Wind Precip. Elev Updated Type